| time (UTC) | temp C | wind direction | speed KPH | gust KPH | rain 1hr cm | rain 24hr cm | rain mn cm | humidity % | barometer mb |
| 20260504050556 | 8 | 186 | 17.7 | 24.1 | 0.00 | 0.00 | 0.00 | 73 | 1015.8 |
| 20260504045532 | 8 | 183 | 17.7 | 20.9 | 0.00 | 0.00 | 0.00 | 73 | 1015.8 |
| 20260504044530 | 8 | 181 | 19.3 | 24.1 | 0.00 | 0.00 | 0.00 | 73 | 1015.8 |
| 20260504043526 | 7 | 184 | 19.3 | 27.4 | 0.00 | 0.00 | 0.00 | 76 | 1015.8 |
| 20260504042543 | 7 | 184 | 20.9 | 30.6 | 0.00 | 0.00 | 0.00 | 78 | 1015.7 |
| 20260504041520 | 6 | 182 | 19.3 | 25.7 | 0.00 | 0.00 | 0.00 | 79 | 1015.7 |
| 20260504040517 | 6 | 182 | 20.9 | 27.4 | 0.00 | 0.00 | 0.00 | 78 | 1015.6 |
| 20260504035534 | 7 | 187 | 19.3 | 24.1 | 0.00 | 0.00 | 0.00 | 72 | 1015.5 |
| 20260504034531 | 6 | 194 | 17.7 | 24.1 | 0.00 | 0.00 | 0.00 | 72 | 1015.5 |
| 20260504033528 | 6 | 196 | 19.3 | 27.4 | 0.00 | 0.00 | 0.00 | 75 | 1015.4 |
| 20260504032525 | 5 | 192 | 20.9 | 25.7 | 0.00 | 0.00 | 0.00 | 77 | 1015.3 |
| 20260504031522 | 5 | 189 | 17.7 | 24.1 | 0.00 | 0.00 | 0.00 | 82 | 1015.3 |
| 20260504030520 | 5 | 184 | 17.7 | 24.1 | 0.00 | 0.00 | 0.00 | 84 | 1015.3 |
| 20260504025517 | 5 | 183 | 17.7 | 24.1 | 0.00 | 0.00 | 0.00 | 84 | 1015.1 |
| 20260504024554 | 5 | 183 | 20.9 | 25.7 | 0.00 | 0.00 | 0.00 | 83 | 1015.2 |
| 20260504023553 | 5 | 184 | 19.3 | 24.1 | 0.00 | 0.00 | 0.00 | 78 | 1015.2 |
| 20260504022528 | 5 | 196 | 14.5 | 22.5 | 0.00 | 0.00 | 0.00 | 76 | 1015.2 |
| 20260504021525 | 5 | 198 | 17.7 | 22.5 | 0.00 | 0.00 | 0.00 | 76 | 1015.2 |
| 20260504020522 | 5 | 195 | 19.3 | 29.0 | 0.00 | 0.00 | 0.00 | 76 | 1015.3 |
| 20260504015519 | 5 | 194 | 17.7 | 27.4 | 0.00 | 0.00 | 0.00 | 77 | 1015.2 |
| 20260504014516 | 5 | 205 | 16.1 | 24.1 | 0.00 | 0.00 | 0.00 | 77 | 1015.3 |
| 20260504013613 | 5 | 193 | 16.1 | 22.5 | 0.00 | 0.00 | 0.00 | 81 | 1015.5 |
| 20260504012530 | 4 | 190 | 19.3 | 24.1 | 0.00 | 0.00 | 0.00 | 84 | 1015.6 |
| 20260504011527 | 4 | 192 | 19.3 | 24.1 | 0.00 | 0.00 | 0.00 | 85 | 1015.7 |
| 20260504010524 | 4 | 190 | 17.7 | 24.1 | 0.00 | 0.00 | 0.00 | 85 | 1015.8 |
| 20260504005521 | 3 | 190 | 20.9 | 25.7 | 0.00 | 0.00 | 0.00 | 87 | 1015.7 |
| 20260504004518 | 3 | 186 | 19.3 | 22.5 | 0.00 | 0.00 | 0.00 | 87 | 1015.9 |
| 20260504003535 | 3 | 187 | 19.3 | 22.5 | 0.00 | 0.00 | 0.00 | 86 | 1016.0 |
| 20260504002532 | 4 | 185 | 17.7 | 22.5 | 0.00 | 0.00 | 0.00 | 85 | 1016.1 |
| 20260504001529 | 4 | 191 | 17.7 | 20.9 | 0.00 | 0.00 | 0.00 | 84 | 1016.2 |
| 20260504000526 | 4 | 187 | 19.3 | 22.5 | 0.00 | 0.00 | 0.00 | 83 | 1016.1 |
| 20260503235523 | 4 | 191 | 19.3 | 20.9 | 0.00 | 0.00 | 0.00 | 82 | 1016.2 |
| 20260503234520 | 5 | 186 | 16.1 | 22.5 | 0.00 | 0.00 | 0.00 | 81 | 1016.3 |
| 20260503233517 | 5 | 188 | 16.1 | 20.9 | 0.00 | 0.00 | 0.00 | 80 | 1016.3 |
| 20260503232535 | 6 | 190 | 17.7 | 20.9 | 0.00 | 0.00 | 0.00 | 75 | 1016.4 |
| 20260503231531 | 6 | 196 | 17.7 | 20.9 | 0.00 | 0.00 | 0.00 | 72 | 1016.5 |
| 20260503230528 | 7 | 190 | 17.7 | 20.9 | 0.00 | 0.00 | 0.00 | 70 | 1016.5 |
| 20260503225525 | 7 | 188 | 16.1 | 19.3 | 0.00 | 0.00 | 0.00 | 67 | 1016.6 |
| 20260503224542 | 7 | 194 | 14.5 | 17.7 | 0.00 | 0.00 | 0.00 | 66 | 1016.5 |
| 20260503223519 | 8 | 201 | 16.1 | 19.3 | 0.00 | 0.00 | 0.00 | 65 | 1016.4 |
| 20260503222517 | 8 | 193 | 14.5 | 17.7 | 0.00 | 0.00 | 0.00 | 65 | 1016.4 |
| 20260503221534 | 8 | 196 | 12.9 | 19.3 | 0.00 | 0.00 | 0.00 | 64 | 1016.5 |
| 20260503220551 | 8 | 204 | 14.5 | 19.3 | 0.00 | 0.00 | 0.00 | 65 | 1016.5 |
| 20260503215528 | 8 | 197 | 12.9 | 17.7 | 0.00 | 0.00 | 0.00 | 65 | 1016.6 |
| 20260503214605 | 8 | 194 | 12.9 | 17.7 | 0.00 | 0.00 | 0.00 | 67 | 1016.7 |
| 20260503213521 | 7 | 190 | 11.3 | 16.1 | 0.00 | 0.00 | 0.00 | 68 | 1016.8 |
| 20260503212518 | 8 | 193 | 12.9 | 19.3 | 0.00 | 0.00 | 0.00 | 68 | 1016.7 |
| 20260503211516 | 7 | 190 | 12.9 | 17.7 | 0.00 | 0.00 | 0.00 | 69 | 1016.7 |
| 20260503210553 | 7 | 203 | 14.5 | 20.9 | 0.00 | 0.00 | 0.00 | 71 | 1016.6 |
| 20260503205530 | 7 | 210 | 16.1 | 20.9 | 0.00 | 0.00 | 0.00 | 71 | 1016.7 |
| 20260503204527 | 7 | 208 | 16.1 | 20.9 | 0.00 | 0.00 | 0.00 | 70 | 1016.6 |
| 20260503203523 | 8 | 201 | 14.5 | 24.1 | 0.00 | 0.00 | 0.00 | 66 | 1016.7 |
| 20260503202541 | 8 | 195 | 14.5 | 19.3 | 0.00 | 0.00 | 0.00 | 66 | 1016.9 |
| 20260503201517 | 8 | 201 | 14.5 | 20.9 | 0.00 | 0.00 | 0.00 | 66 | 1016.8 |
| 20260503200535 | 8 | 189 | 12.9 | 17.7 | 0.00 | 0.00 | 0.00 | 67 | 1016.9 |
| 20260503195532 | 8 | 189 | 12.9 | 17.7 | 0.00 | 0.00 | 0.00 | 67 | 1017.0 |
| 20260503194529 | 8 | 197 | 14.5 | 20.9 | 0.00 | 0.00 | 0.00 | 65 | 1017.0 |
| 20260503193526 | 9 | 196 | 12.9 | 16.1 | 0.00 | 0.00 | 0.00 | 63 | 1017.0 |
| 20260503192523 | 9 | 195 | 11.3 | 16.1 | 0.00 | 0.00 | 0.00 | 64 | 1017.0 |
| 20260503191520 | 9 | 194 | 11.3 | 16.1 | 0.00 | 0.03 | 0.00 | 64 | 1017.1 |
| 20260503190517 | 9 | 193 | 11.3 | 16.1 | 0.00 | 0.03 | 0.00 | 64 | 1017.5 |
| 20260503185534 | 10 | 183 | 11.3 | 16.1 | 0.00 | 0.03 | 0.00 | 63 | 1017.4 |
| 20260503184531 | 10 | 184 | 9.7 | 16.1 | 0.00 | 0.03 | 0.00 | 61 | 1017.6 |
| 20260503183528 | 10 | 180 | 11.3 | 14.5 | 0.00 | 0.03 | 0.00 | 58 | 1017.6 |
| 20260503182525 | 10 | 181 | 11.3 | 16.1 | 0.00 | 0.03 | 0.00 | 57 | 1017.8 |
| 20260503181522 | 10 | 178 | 11.3 | 14.5 | 0.00 | 0.03 | 0.00 | 56 | 1017.8 |
| 20260503180519 | 10 | 165 | 11.3 | 20.9 | 0.00 | 0.03 | 0.00 | 55 | 1017.8 |
| 20260503175536 | 10 | 171 | 12.9 | 19.3 | 0.00 | 0.03 | 0.00 | 54 | 1017.8 |
| 20260503174534 | 11 | 162 | 12.9 | 17.7 | 0.00 | 0.03 | 0.00 | 54 | 1017.7 |
| 20260503173536 | 11 | 166 | 11.3 | 19.3 | 0.00 | 0.03 | 0.00 | 55 | 1017.7 |
| 20260503172533 | 11 | 160 | 12.9 | 20.9 | 0.00 | 0.03 | 0.00 | 54 | 1017.6 |
| 20260503171529 | 11 | 147 | 12.9 | 20.9 | 0.00 | 0.03 | 0.00 | 54 | 1017.7 |
| 20260503170526 | 11 | 138 | 14.5 | 24.1 | 0.00 | 0.03 | 0.00 | 56 | 1017.7 |
| 20260503150530 | 12 | 116 | 16.1 | 37.0 | 0.00 | 0.03 | 0.00 | 58 | 1017.5 |
| 20260503130535 | 12 | 116 | 20.9 | 40.2 | 0.00 | 0.03 | 0.00 | 67 | 1018.1 |
| 20260503110517 | 12 | 103 | 17.7 | 43.5 | 0.00 | 0.03 | 0.00 | 62 | 1018.3 |
| 20260503081526 | 9 | 178 | 8.0 | 12.9 | 0.00 | 0.03 | 0.00 | 76 | 1019.4 |
| 20260503080523 | 8 | 151 | 6.4 | 14.5 | 0.00 | 0.03 | 0.00 | 77 | 1019.4 |
| 20260503072530 | 8 | 37 | 9.7 | 25.7 | 0.00 | 0.03 | 0.00 | 75 | 1019.2 |
| 20260503071528 | 9 | 191 | 8.0 | 24.1 | 0.00 | 0.03 | 0.00 | 74 | 1019.1 |
| 20260503070525 | 9 | 176 | 6.4 | 14.5 | 0.00 | 0.03 | 0.00 | 73 | 1019.1 |
| 20260503054521 | 8 | 189 | 8.0 | 17.7 | 0.00 | 0.03 | 0.00 | 73 | 1018.8 |
| 20260503053538 | 8 | 258 | 6.4 | 12.9 | 0.00 | 0.03 | 0.00 | 74 | 1018.7 |